Regional Weather Roundup
Issued by NWS Charleston, SC

Current Version | Previous Version | Text Only | Print | Product List | Glossary Off
Versions: 1 2 3 4 5 6 7 8 9 10 11 12 13 14 15 16 17 18 19 20 21 22 23 24 25 26 27 28 29 30 31 32 33 34 35 36 37 38 39 40 41 42 43 44 45 46 47 48 49 50

000
ASUS42 KCHS 070227
RWRCHS

REGIONAL WEATHER ROUNDUP
NATIONAL WEATHER SERVICE CHARLESTON SC
1000 PM EDT MON JUL 06 2015

NOTE: "FAIR" INDICATES FEW OR NO CLOUDS BELOW 12,000 FEET WITH NO
SIGNIFICANT WEATHER AND/OR OBSTRUCTIONS TO VISIBILITY.

NOT ALL STATIONS ARE QUALITY CONTROLLED BY THE NATIONAL
WEATHER SERVICE. USE DATA WITH CAUTION...ESPECIALLY
DEWPOINT OBSERVATIONS.

SCZ027-030-031-034>040-042>050-070300-
...SOUTHEAST SOUTH CAROLINA...

CITY           SKY/WX    TMP DP  RH WIND       PRES   REMARKS
N CHARLESTON   CLEAR     77  72  84 S8        30.10S
WATERFRONT PAR   N/A     80  74  82 S7        30.08S
MOUNT PLEASANT FAIR      79  73  83 S3        30.11R
JOHNS ISLAND   FAIR      79  73  83 CALM      30.11S
PINOPOLIS      NOT AVBL
MONCKS CORNER  FAIR      79  72  78 CALM      30.10S
SUMMERVILLE    FAIR      77  75  94 CALM      30.11S
BEAUFORT MCAS  MOCLDY    79  74  84 S3        30.11S
BEAUFORT ARPT  FAIR      79  73  83 CALM      30.11S
HILTON HEAD IS MOCLDY    79  72  78 S3        30.12S
WALTERBORO     CLOUDY    77  72  83 S9        30.11S
ALLENDALE      FAIR      79  75  89 S5        30.09R

...SOUTHERN MIDLANDS AND PEE DEE...

CITY           SKY/WX    TMP DP  RH WIND       PRES   REMARKS
GEORGETOWN     NOT AVBL
KINGSTREE      NOT AVBL
ORANGEBURG     PTCLDY    79  71  76 S5        30.10R
BARNWELL       FAIR      77  73  88 CALM      30.11R
AIKEN          NOT AVBL
MANNING        FAIR      79  72  78 S6        30.10R
COLUMBIA       CLEAR     81  70  69 S3        30.07S
SUMTER         CLEAR     79  72  78 SW2       30.07R
FLORENCE       CLEAR     79  72  79 S8        30.09R
MYRTLE BEACH   NOT AVBL
N MYRTLE BEACH PTCLDY    80  73  79 SW12      30.10S

$$

GAZ063-065-086>088-099>101-113>116-118-119-134>141-150-070300-
...SOUTHEAST GEORGIA...

CITY           SKY/WX    TMP DP  RH WIND       PRES   REMARKS
SAVANNAH ARPT  CLOUDY    74  71  91 SE3       30.12R
HUNTER AAF     CLOUDY    73  73 100 SE3       30.10R
FORT STEWART   PTCLDY    76  72  85 SE7       30.09S
STATESBORO     NOT AVBL
SYLVANIA       PTCLDY    80  74  82 S5        30.11R
CLAXTON        FAIR      77  73  88 CALM      30.11R

...CSRA...CENTRAL AND FAR SOUTHEAST GEORGIA...

CITY           SKY/WX    TMP DP  RH WIND       PRES   REMARKS
THOMSON        CLEAR     77  75  92 CALM      30.14S
AUGUSTA-BUSH   CLOUDY    75  71  87 SE3       30.08R
AUGUSTA-DANIEL CLOUDY    81  68  64 CALM      30.10R
SWAINSBORO     FAIR      79  73  83 CALM      30.11S
VIDALIA        PTCLDY    77  70  78 CALM      30.12R
EASTMAN        FAIR      75  75 100 CALM      30.14R
HAZLEHURST     FAIR      79  73  81 CALM      30.11R
ALMA           PTCLDY    75  72  90 CALM      30.10S
WAYCROSS       MOCLDY    79  76  91 CALM      30.12R
JESUP          MOCLDY    81  75  83 S5        30.12R
BAXLEY         FAIR      79  73  83 CALM      30.11R
BRUNSWICK      MOCLDY    79  73  83 CALM      30.14S
SAINT SIMONS   CLOUDY    79  72  79 S8        30.12R

$$

SCZ027-028-034-036>038-045-046-048>050-GAZ119-141-070300-
...LAKE AND SUPPLEMENTAL COASTAL OBSERVATIONS...

STATION/POSITION TIME  TEMP    WIND        PRES    WAVE   SWELL
                       AIR SEA DIR/SP/G            HT/PER HT/PER/DIR
                 (UTC) (F)     (DEG/KT/KT) (MB)    (FT/S) (FT/S/D)
UPR LAKE MARION  NOT AVBL
WINYAH BAY       0145   78     220/  5     1018.0S
LAKE MURRAY      0100   85     190/  5/  6 1017.6R
ACE BASIN NERRS  NOT AVBL
FORT PULASKI     0200   76 84  160/  4/  7 1020.2F
SAPELO ISLAND    0200   79     230/ 10     1020.0R

$$

ANZ835-935-AMZ111-154-330-350-352-354-370-450-454-472-070300-
...C-MAN AND BUOY OBSERVATIONS...

STATION/POSITION TIME  TEMP    WIND        PRES    WAVE   SWELL
                       AIR SEA DIR/SP/G            HT/PER HT/PER/DIR
                 (UTC) (F)     (DEG/KT/KT) (MB)    (FT/S) (FT/S/D)
BUOY 41004       0150   81 83  190/ 14/ 16 1018.9S   3/ 8   2/ 8
BUOY 41008       0150   79 79  190/ 14/ 16 1020.0R   2/ 8   2/ 80/ 8
FOLLY BEACH CMAN 0200   80     210/ 14/ 15 1019.5F
CAPERS NEARSHORE 0108   80     210/ 14/ 19 1019.5R
FRIPP NEARSHORE  0100   80     190/ 10/ 12 1019.5R


STATION/POSITION TIME  TEMP    WIND        PRES    WAVE   SWELL
                       AIR SEA DIR/SP/G            HT/PER HT/PER/DIR
                 (UTC) (F)     (DEG/KT/KT) (MB)    (FT/S) (FT/S/D)
5E ST. MARYS GA  0121      77                N/A     3/ 3
FRYING PAN BUOY  0150   81 80  200/ 12/ 14 1019.8F   3/ 9   2/130/ 9
BUOY 41025       0150   80 81  200/ 17/ 19 1019.1F   3/ 4   2/120/ 9
CAPE LOOKOUT NC  0200   80     200/ 10/ 15 1019.1R
BUOY 41002       0150   81 80  180/ 10/ 12 1021.6S   4/ 8   3/140/ 8
BUOY 41010       0120   82 84  170/  6/  6 1021.6R
ST AUGUSTINE FL  0200   74 74  200/  6/  7 1021.6R


$$


USA.gov is the U.S. government's official web portal to all federal, state and local government web resources and services.